Location: *
(33.6842°N, 117.7925°W)
Time: 22:59:49
(UTC+00:00)

Okean 1-7 Rocket - Pass Details

Date: 21 October 2019
Orbit: 617 x 649 km, 82.5° (Epoch: 17 November)

Event Time Altitude Azimuth Distance (km) Brightness Sun altitude
Rises 13:06:59 0° 211° (SSW) 2,893 6.7 -11.9°
Reaches altitude 10° 13:09:28 10° 224° (SW) 1,996 5.8 -11.4°
Maximum altitude 13:13:14 27° 282° (WNW) 1,214 4.5 -10.6°
Drops below altitude 10° 13:17:03 10° 341° (NNW) 2,024 5.9 -9.8°
Sets 13:19:36 0° 353° (N) 2,943 6.9 -9.3°
